アトラス彗星

C/2022 F1 ( ATLAS )

English version
Home page
Updated on May 15, 2024

---------------------------------------------------------------------

・ プロフィール

発見日 2022年3月30日
発見光度 18.6等
発見者 Asteroid Terrestrial-Impact Last Alert System (ATLAS) search program

・ 軌道要素

Epoch 2024 Mar. 31.0 TT = JDT 2460400.5
T 2022 Aug. 5.21076 TT                                  Rudenko
q   5.9751315            (2000.0)            P               Q
z  +0.0002342      Peri.  278.29165     +0.05700661     +0.98881309
 +/-0.0000027      Node   350.64420     -0.16270490     -0.12701393
e   0.9986004      Incl.   57.98259     -0.98502658     +0.07820568
>From 134 observations 2022 Mar. 30-2024 Jan. 2, mean residual 0".5.

・ 光度変化

        m1 = 6.5 + 5 logΔ + 10.0 log r

---------------------------------------------------------------------

軌道要素はM.P.E.C. 2024-G193に掲載されたものです。
光度グラフはComet for Windowsで作成したものです。

---------------------------------------------------------------------

Copyright(C) Seiichi Yoshida (comet@aerith.net). All rights reserved.